This is the latest recevied weather packets stored in our database for station/object SP6FIG-13. If no packets are shown the sender has not sent any weather packets the latest 10 day(s).
| Time | Temp. | Humidity | Pressure | Rain* | Wind** | Luminosity | Snow |
|---|---|---|---|---|---|---|---|
| 1778085569 | 23.33° C | 42% | 1005.5 hPa | - | - | - | - |
| 1778085269 | 23.33° C | 42% | 1005.7 hPa | - | - | - | - |
| 1778084969 | 23.33° C | 42% | 1005.7 hPa | - | - | - | - |
| 1778084669 | 23.33° C | 42% | 1005.7 hPa | - | - | - | - |
| 1778084369 | 23.33° C | 42% | 1005.9 hPa | - | - | - | - |
| 1778084069 | 23.33° C | 42% | 1006 hPa | - | - | - | - |
| 1778083769 | 23.33° C | 42% | 1005.4 hPa | - | - | - | - |
| 1778083469 | 22.78° C | 43% | 1004.7 hPa | - | - | - | - |
| 1778083169 | 21.67° C | 46% | 1006.7 hPa | - | - | - | - |
| 1778082869 | 21.67° C | 42% | 1006.8 hPa | - | - | - | - |
| 1778082569 | 21.67° C | 39% | 1008.1 hPa | - | - | - | - |
| 1778082269 | 22.78° C | 36% | 1006.6 hPa | - | - | - | - |
| 1778081969 | 23.33° C | 35% | 1006 hPa | - | - | - | - |
| 1778081669 | 23.33° C | 34% | 1006.3 hPa | - | - | - | - |
| 1778081369 | 23.33° C | 34% | 1006.2 hPa | - | - | - | - |
| 1778081069 | 23.33° C | 35% | 1005.5 hPa | - | - | - | - |
| 1778080769 | 23.33° C | 34% | 1005.8 hPa | - | - | - | - |
| 1778080469 | 23.33° C | 34% | 1006.4 hPa | - | - | - | - |
| 1778080169 | 23.33° C | 35% | 1005.7 hPa | - | - | - | - |
| 1778079869 | 23.33° C | 34% | 1006.4 hPa | - | - | - | - |
| 1778079569 | 23.89° C | 34% | 1005.8 hPa | - | - | - | - |
| 1778079269 | 23.89° C | 36% | 1006.2 hPa | - | - | - | - |
| 1778078969 | 23.89° C | 35% | 1006.2 hPa | - | - | - | - |
| 1778078669 | 23.89° C | 34% | 1006.1 hPa | - | - | - | - |
| 1778078369 | 23.89° C | 34% | 1006.5 hPa | - | - | - | - |
* Rain since midnight (hover to see other rain measurements)
** Current wind speed in m/s (hover to see current wind gust speed)